Starlink 32161

operational
NORAD ID: 60593 Int'l Des: 2024-150 Owner: SPXS Country: US Constellation: starlink
LEOCIRCULAR

About Starlink 32161

Description loading...

Live Position

Loading 3D Globe...

Upcoming Passes

Altitude History

Altitude vs Time

uPlot chart will show altitude changes over time

Two-Line Element Set

1 60593U 24150L 25352.31126743 .00000123 00000-0 16276-4 0 9991
2 60593 53.1618 324.9018 0001314 96.2007 263.9143 15.30192108 75504
Epoch: Dec 18, 2025 • Age: 15 hours

Current Status

Altitude 482.0 km
Velocity 7.62 km/s
Sub-Earth Point -22.62°S, 95.01°E
Launch Date Aug 20, 2024
Age 1.3 years
Type internet

Technical Details

Classification Payload
Mass 730.00 kg
Dry Mass 700.00 kg
Total Mass 730.00 kg
Length 0.30 m
Diameter 4.10 m
Span 29.00 m
Shape Box + pan
Manufacturer SPXS
Bus Type Starlink V2M
Phase Status In Orbit
Owner/State SPXS/US

Large Constellations

Loading constellations...